EW1145 Weather Reports


Display with metric or nautical units.
time (UTC)temp
F
wind
direction
speed
MPH
gust
MPH
rain 1hr
in
rain 24hr
in
rain mn
in
humidity
%
barometer
mb
20260904164536 55 214 0.0 1.0 0.00 0.37 0.15 98 1012.5
20260904163035 54 214 0.0 0.0 0.00 0.37 0.15 98 1012.4
20260904161534 54 214 0.0 0.0 0.00 0.37 0.15 98 1012.3
20260904160033 54 214 0.0 0.0 0.00 0.40 0.15 98 1012.3
20260904154532 54 214 0.0 0.0 0.00 0.40 0.15 98 1012.3
20260904153031 53 214 0.0 0.0 0.00 0.40 0.15 98 1012.2
20260904151530 53 214 0.0 0.0 0.00 0.40 0.15 98 1012.1
20260904150034 53 214 0.0 0.0 0.00 0.45 0.15 98 1011.9
20260904144526 53 214 0.0 0.0 0.00 0.45 0.15 98 1011.7
20260904143030 53 214 0.0 0.0 0.00 0.45 0.15 98 1011.5
20260904141524 53 214 0.0 0.0 0.02 0.45 0.15 98 1011.4
20260904140022 53 214 0.0 0.0 0.03 0.53 0.15 98 1011.2
20260904134520 53 214 0.0 0.0 0.04 0.53 0.15 97 1011.1
20260904133020 53 214 0.0 0.0 0.07 0.53 0.15 97 1011.0
20260904131519 53 214 0.0 0.0 0.08 0.51 0.13 97 1011.0
20260904130017 53 214 0.0 0.0 0.09 0.59 0.12 97 1010.8
20260904124516 53 214 0.0 0.0 0.10 0.57 0.11 97 1010.7
20260904123015 53 214 0.0 0.0 0.07 0.55 0.08 97 1010.7
20260904121514 53 214 0.0 0.0 0.04 0.52 0.05 97 1010.6
20260904120013 53 214 0.0 0.0 0.02 0.54 0.03 97 1010.6
20260904114510 53 214 0.0 0.0 0.01 0.52 0.01 97 1010.4
20260904113009 53 214 0.0 0.0 0.01 0.52 0.01 97 1010.2
20260904111508 53 214 0.0 0.0 0.01 0.52 0.01 97 1010.1
20260904110007 52 214 0.0 0.0 0.01 0.52 0.01 97 1010.1
20260904104506 52 214 0.0 0.0 0.00 0.51 0.00 97 1010.1
20260904103006 52 214 0.0 0.0 0.00 0.51 0.00 97 1010.0
20260904101504 52 214 0.0 0.0 0.00 0.51 0.00 97 1010.0
20260904100004 52 214 0.0 0.0 0.00 0.51 0.00 96 1010.0
20260904094506 52 214 0.0 0.0 0.00 0.51 0.00 95 1009.8
20260904093104 52 214 0.0 0.0 0.00 0.51 0.00 95 1009.6
20260904091600 53 214 0.0 0.0 0.00 0.51 0.00 96 1009.6
20260904090058 53 214 0.0 0.0 0.00 0.51 0.00 95 1009.7
20260904084604 53 214 0.0 0.0 0.00 0.51 0.00 95 1009.6
20260904083056 53 214 0.0 0.0 0.00 0.51 0.00 94 1009.7
20260904081552 54 214 0.0 0.0 0.00 0.51 0.00 94 1009.7
20260904080051 54 214 0.0 0.0 0.00 0.51 0.00 94 1009.6
20260904074601 54 214 0.0 0.0 0.00 0.51 0.00 94 1009.6
20260904073050 55 214 0.0 0.0 0.00 0.51 0.00 94 1009.6
20260904071613 55 214 0.0 0.0 0.00 0.51 0.00 94 1009.6
20260904070058 55 214 0.0 0.0 0.00 0.51 0.51 94 1009.6
20260904064603 55 214 0.0 0.0 0.00 0.51 0.51 93 1009.6
20260904063052 55 214 0.0 0.0 0.00 0.51 0.51 94 1009.6
20260904061546 54 214 0.0 0.0 0.00 0.51 0.51 94 1009.6
20260904060046 54 214 0.0 0.0 0.00 0.51 0.51 93 1009.6
20260904054546 55 214 0.0 0.0 0.00 0.51 0.51 93 1009.6
20260904053056 55 214 0.0 0.0 0.00 0.51 0.51 93 1009.7
20260904051543 55 214 0.0 0.0 0.00 0.51 0.51 93 1009.8
20260904050048 55 214 0.0 0.0 0.00 0.51 0.51 93 1009.8
20260904044543 55 214 0.0 0.0 0.00 0.51 0.51 92 1009.8
20260904043046 56 214 0.0 0.0 0.00 0.51 0.51 92 1009.8
20260904041544 56 214 0.0 0.0 0.00 0.51 0.51 91 1009.6
20260904040043 56 214 0.0 0.0 0.00 0.51 0.51 90 1009.7
20260904034539 56 214 0.0 0.0 0.00 0.51 0.51 89 1009.5
20260904033044 56 214 0.0 0.0 0.00 0.51 0.51 89 1009.3
20260904031548 56 214 0.0 0.0 0.00 0.51 0.51 88 1009.2
20260904030039 57 214 0.0 0.0 0.00 0.51 0.51 88 1009.1
20260904024538 57 214 0.0 0.0 0.00 0.51 0.51 87 1009.1
20260904023037 58 214 0.0 0.0 0.00 0.51 0.51 85 1008.9
20260904021546 58 214 0.0 0.0 0.00 0.51 0.51 84 1008.9
20260904020041 58 214 0.0 0.0 0.00 0.51 0.51 82 1008.9
20260904014536 58 214 0.0 0.0 0.00 0.51 0.51 82 1009.0
20260904013039 59 214 0.0 1.0 0.00 0.51 0.51 81 1008.9
20260904011535 60 214 0.0 0.0 0.00 0.51 0.51 81 1008.9
20260904010034 60 214 0.0 0.0 0.00 0.51 0.51 79 1008.8
20260904004533 60 214 0.0 4.0 0.00 0.51 0.51 79 1008.9
20260904003033 60 214 1.0 4.0 0.00 0.51 0.51 75 1008.9
20260904001533 62 214 1.0 8.0 0.00 0.51 0.51 74 1008.8
20260904000032 63 199 2.0 7.0 0.00 0.51 0.51 74 1008.7
20260903234529 62 213 1.0 7.0 0.00 0.51 0.51 75 1008.7
20260903233033 61 182 0.0 8.0 0.00 0.51 0.51 78 1008.9
20260903231525 60 194 1.0 7.0 0.00 0.51 0.51 79 1009.0
20260903230023 59 200 0.0 7.0 0.00 0.53 0.51 82 1009.1
20260903224523 58 184 0.0 4.0 0.00 0.53 0.51 85 1009.2
20260903223020 58 186 1.0 10.0 0.00 0.53 0.51 87 1009.3
20260903221540 59 202 0.0 6.0 0.00 0.53 0.51 84 1009.1
20260903220020 60 154 0.0 7.0 0.00 0.55 0.51 86 1008.9
20260903214517 59 228 0.0 4.0 0.01 0.55 0.51 89 1009.0
20260903213021 59 185 0.0 7.0 0.01 0.55 0.51 90 1009.2
20260903211516 59 209 0.0 6.0 0.01 0.55 0.51 94 1009.2
20260903210015 58 200 0.0 4.0 0.02 0.56 0.51 95 1009.2
20260903204513 58 176 0.0 3.0 0.02 0.56 0.50 96 1009.1
20260903203019 57 207 0.0 7.0 0.13 0.56 0.50 97 1009.1
20260903201513 56 219 0.0 6.0 0.15 0.56 0.50 96 1009.2
20260903200020 56 218 0.0 6.0 0.16 0.57 0.49 96 1009.1
20260903194524 56 215 0.0 5.0 0.15 0.56 0.48 94 1009.0
20260903193009 57 211 0.0 0.0 0.05 0.46 0.37 94 1009.0
20260903191510 57 195 0.0 2.0 0.05 0.44 0.35 95 1009.2
20260903190008 56 121 0.0 2.0 0.03 0.48 0.33 93 1009.2
20260903184508 55 175 0.0 0.0 0.03 0.48 0.33 92 1009.4
20260903183007 56 175 0.0 4.0 0.03 0.47 0.32 90 1009.4
20260903181507 57 175 0.0 2.0 0.01 0.45 0.30 92 1009.1
20260903180013 57 180 1.0 9.0 0.01 0.51 0.30 90 1008.8
20260903174505 57 195 0.0 7.0 0.01 0.51 0.30 92 1008.9
20260903173005 58 222 1.0 4.0 0.00 0.50 0.28 94 1009.0
20260903171502 56 197 0.0 3.0 0.00 0.50 0.28 96 1009.1
20260903170001 56 198 0.0 5.0 0.00 0.55 0.28 96 1009.2